Danbury, CT

2:16 PM EDT on April 26, 2017 (GMT -0400)
Danbury Municipal

Weather History for KDXR - August, 2013

Change the Weather History Date:

Sunday, August 4, 2013

  Actual Average Record
Temperature  
Mean Temperature 66 °F -  
Max Temperature 77 °F 83 °F 95 °F (1993)
Min Temperature 55 °F 63 °F 45 °F (1964)
Cooling Degree Days 1    
Growing Degree Days 16 (Base 50)    
Moisture  
Dew Point 56 °F    
Average Humidity 76    
Maximum Humidity 94    
Minimum Humidity 42    
Precipitation  
Precipitation 0.11 in - - ()
Sea Level Pressure  
Sea Level Pressure 29.90 in    
Wind  
Wind Speed 3 mph (WSW)    
Max Wind Speed 9 mph    
Max Gust Speed 16 mph    
Visibility 8 miles    
Events Rain    
Averages and records for this station are not official NWS values.
T = Trace of Precipitation, MM = Missing Value Source: NWS Daily Summary

Daily Weather History Graph

Daily Weather History Graph

Search for Another Location

Airport or City:

Trip Planner

Search our weather history database for the weather conditions in past years. The results will help you decide how hot, cold, wet, or windy it might be!

Date:

Astronomy

Aug. 04, 2013 Rise Set
Actual Time 5:52 AM EDT 8:07 PM EDT
Civil Twilight 5:21 AM EDT 8:37 PM EDT
Nautical Twilight 4:43 AM EDT 9:15 PM EDT
Astronomical Twilight 4:01 AM EDT 9:57 PM EDT
Moon 3:50 AM EDT (8/4) 6:28 PM EDT (8/4)
Length of Visible Light 15h 16m
Length of Day
14h 15m
Waning Crescent, 5% of the Moon is Illuminated
Aug 4
Waning Crescent
Aug 6
New
Aug 14
First Quarter
Aug 20
Full
Aug 28
Last Quarter

Hourly Weather History & Observations

Time (EDT) Temp. Dew Point Humidity Pressure Visibility Wind Dir Wind Speed Gust Speed Precip Events Conditions
12:53 AM 62.1 °F 60.1 °F 93% 29.89 in 6.0 mi Calm Calm - N/A   Scattered Clouds
1:53 AM 60.1 °F 57.9 °F 93% 29.88 in 4.0 mi SW 3.5 mph - N/A   Clear
2:53 AM 60.1 °F 57.0 °F 90% 29.88 in 6.0 mi Calm Calm - N/A   Clear
3:53 AM 57.0 °F 55.0 °F 93% 29.88 in 4.0 mi Calm Calm - N/A   Clear
4:29 AM 57.2 °F 53.6 °F 88% 29.89 in 2.0 mi SW 3.5 mph - N/A   Clear
4:39 AM 57.2 °F 55.4 °F 94% 29.88 in 6.0 mi WSW 3.5 mph - N/A   Clear
4:53 AM 57.0 °F 55.0 °F 93% 29.87 in 6.0 mi Calm Calm - N/A   Clear
5:53 AM 55.9 °F 53.1 °F 90% 29.88 in 2.5 mi SW 3.5 mph - N/A   Clear
6:04 AM 55.4 °F 53.6 °F 94% 29.89 in 6.0 mi WSW 3.5 mph - N/A   Clear
6:53 AM 57.9 °F 55.0 °F 90% 29.89 in 7.0 mi SW 3.5 mph - 0.01 in   Clear
7:53 AM 64.0 °F 55.9 °F 75% 29.90 in 10.0 mi SW 3.5 mph - N/A   Clear
8:53 AM 69.1 °F 54.0 °F 58% 29.89 in 10.0 mi West 5.8 mph - N/A   Clear
9:53 AM 71.1 °F 55.0 °F 57% 29.90 in 10.0 mi Variable 5.8 mph - N/A   Clear
10:53 AM 72.0 °F 54.0 °F 53% 29.89 in 10.0 mi Variable 3.5 mph - N/A   Clear
11:53 AM 73.9 °F 54.0 °F 50% 29.90 in 10.0 mi NNW 6.9 mph - N/A   Mostly Cloudy
12:53 PM 75.0 °F 54.0 °F 48% 29.88 in 10.0 mi West 8.1 mph - N/A   Scattered Clouds
1:53 PM 73.9 °F 55.0 °F 52% 29.87 in 10.0 mi NW 8.1 mph 16.1 mph N/A   Partly Cloudy
2:53 PM 77.0 °F 54.0 °F 45% 29.86 in 10.0 mi West 9.2 mph - N/A   Clear
3:53 PM 77.0 °F 52.0 °F 42% 29.85 in 10.0 mi West 8.1 mph - N/A   Partly Cloudy
4:53 PM 62.1 °F 55.9 °F 80% 29.90 in 4.0 mi WSW 4.6 mph - 0.10 in Rain Light Rain
5:53 PM 68.0 °F 60.1 °F 76% 29.89 in 10.0 mi WSW 4.6 mph - 0.00 in   Clear
6:53 PM 68.0 °F 59.0 °F 73% 29.89 in 10.0 mi WSW 3.5 mph - N/A   Clear
7:53 PM 64.9 °F 60.1 °F 84% 29.91 in 10.0 mi WSW 5.8 mph - N/A   Partly Cloudy
8:53 PM 63.0 °F 59.0 °F 87% 29.94 in 10.0 mi Calm Calm - N/A   Partly Cloudy
9:53 PM 62.1 °F 57.0 °F 84% 29.96 in 10.0 mi WSW 4.6 mph - N/A   Clear
10:53 PM 61.0 °F 54.0 °F 78% 29.96 in 10.0 mi Calm Calm - N/A   Clear
11:53 PM 57.9 °F 53.1 °F 84% 29.98 in 10.0 mi WSW 3.5 mph - N/A   Clear